This demonstration page uses our WeatherBlox Daily Observations layout. Learn more.

Left ArrowRight Arrow

Hourly Observations for March 30, 2021

Temp ( °F °C ) Dew Point ( °F °C ) Humidity (%) Winds ( mph kmh ) Pressure ( in mb ) Visibility ( mi km ) Precip ( " mm )
12:51 am 00:51 Clear 68 20 16 -8.9 13 13 NW 14 22 29.68 1005 10 16 N/A
1:51 am 01:51 Clear 64 17.8 17 -8.3 16 16 NNW 9 15 29.70 1006 10 16 N/A
2:51 am 02:51 Clear 58 14.4 17 -8.3 20 20 N N/A 29.70 1006 10 16 N/A
3:51 am 03:51 Clear 57 13.9 18 -7.8 22 22 W 5 7 29.71 1006 10 16 N/A
4:51 am 04:51 Clear 51 10.6 16 -8.9 25 25 ESE 3 6 29.74 1007 10 16 N/A
5:51 am 05:51 Clear 49 9.4 16 -8.9 27 27 E 6 9 29.77 1008 10 16 N/A
6:51 am 06:51 Sunny 52 11.1 16 -8.9 24 24 ENE 5 7 29.80 1009 10 16 N/A
7:51 am 07:51 Sunny 63 17.2 18 -7.8 17 17 E 5 7 29.80 1009 10 16 N/A
8:51 am 08:51 Sunny 68 20 19 -7.2 15 15 S 6 9 29.81 1009 10 16 N/A
9:51 am 09:51 Sunny 72 22.2 15 -9.4 11 11 VRB 3 6 29.82 1010 10 16 N/A
10:51 am 10:51 Sunny 76 24.4 15 -9.4 10 10 SW 7 11 29.80 1009 10 16 N/A
11:51 am 11:51 Sunny 78 25.6 12 -11.1 8 8 VRB 6 9 29.78 1009 10 16 N/A
12:51 pm 12:51 Sunny 82 27.8 14 -10 8 8 NW 20 31 29.75 1007 10 16 N/A
1:51 pm 13:51 Sunny 83 28.3 13 -10.6 7 7 WNW 25 41 29.73 1007 10 16 N/A
2:51 pm 14:51 Sunny 83 28.3 11 -11.7 6 6 WNW 26 43 29.72 1006 10 16 N/A
3:51 pm 15:51 Sunny 83 28.3 9 -12.8 6 6 WNW 23 37 29.73 1007 10 16 N/A
4:51 pm 16:51 Sunny 81 27.2 9 -12.8 6 6 NW 22 35 29.76 1008 10 16 N/A
5:51 pm 17:51 Sunny 78 25.6 11 -11.7 8 8 WNW 23 37 29.78 1009 10 16 N/A
6:51 pm 18:51 Clear 73 22.8 12 -11.1 9 9 NW 13 20 29.81 1010 10 16 N/A
7:51 pm 19:51 Clear 69 20.6 10 -12.2 10 10 NW 10 17 29.83 1010 10 16 N/A
8:51 pm 20:51 Clear 65 18.3 12 -11.1 13 13 WNW 9 15 29.87 1012 10 16 N/A
9:51 pm 21:51 Clear 60 15.6 13 -10.6 16 16 W 7 11 29.91 1013 10 16 N/A
10:51 pm 22:51 Clear 56 13.3 12 -11.1 17 17 N 8 13 29.93 1014 10 16 N/A
11:51 pm 23:51 Clear 55 12.8 12 -11.1 18 18 NNE 7 11 29.93 1014 10 16 N/A

Powered by AerisWeather